Regional Weather Roundup
Issued by NWS

Home | Current Version | Previous Version | Graphics & Text | Print | Product List | Glossary On
Versions: 1 2 3 4 5 6 7 8 9 10 11 12 13 14 15 16 17 18 19 20 21 22 23 24 25 26 27 28 29 30 31 32 33 34 35 36 37 38 39 40 41 42 43 44 45 46 47 48 49 50
790
ASUS43 KDMX 110003
RWRIA

WEATHER ROUNDUP FOR IOWA
NATIONAL WEATHER SERVICE DES MOINES IA
600 PM CST WED FEB 10 2016

NOTE: "FAIR" INDICATES FEW OR NO CLOUDS BELOW 12,000 FEET WITH NO
SIGNIFICANT WEATHER AND/OR OBSTRUCTIONS TO VISIBILITY.

* - THESE STATIONS ARE NOT NWS STATIONS...THUS NOT UNDER NWS
QUALITY CONTROL.  THEY ALSO DO NOT REPORT WEATHER SUCH
AS PRECIPITATION OR FOG.

IAZ001>003-012>014-020>022-031>034-043>046-110100-
   NORTHWEST IOWA

CITY           SKY/WX    TMP DP  RH WIND       PRES   REMARKS
CARROLL *      CLOUDY    16  14  93 E12       30.07R WCI   3
CHEROKEE *     CLOUDY    16  12  86 E9        30.08R WCI   4
DENISON *      CLOUDY    18  16  93 E12G17    30.03R WCI   5
LE MARS *      CLOUDY    18  16  93 E8        30.10R WCI   7
ORANGE CITY *  CLOUDY    16  12  86 E8        30.07R WCI   5
SHELDON *      CLOUDY    14  10  85 E12       30.07R WCI   0
SIOUX CITY     CLOUDY    22  15  75 E13       30.07R WCI  10
6HR MIN TEMP:  22; 6HR MAX TEMP:  31;

SPENCER        CLOUDY    13   7  77 E10       30.10R WCI   0
6HR MIN TEMP:  13; 6HR MAX TEMP:  15; 6HR PCP: TRACE;

STORM LAKE *   CLOUDY    14  12  92 E15       30.06R WCI  -1
$$

IAZ055>058-069>071-079>083-090>094-110100-
   SOUTHWEST IOWA

CITY           SKY/WX    TMP DP  RH WIND       PRES   REMARKS
ATLANTIC *     CLOUDY    23  18  80 NE12G18   30.04R WCI  12
AUDUBON *      CLOUDY    18  16  93 E13       30.05R WCI   4
CLARINDA *     CLEAR     36  23  60 E5        30.00R WCI  32
COUNCIL BLFS * PTCLDY    28  25  86 NE16G23   29.99R WCI  17
CRESTON *      CLOUDY    23  19  86 E16       30.02R WCI  10
HARLAN  *      CLOUDY    21  19  93 NE12      30.06R WCI   9
LAMONI         CLOUDY    24  19  81 E10       30.01R WCI  14
6HR MIN TEMP:  22; 6HR MAX TEMP:  28;

RED OAK *      CLEAR     36  23  60 E6        29.99R WCI  31
SHENANDOAH *   CLEAR     37  25  60 E5        29.98R WCI  34
$$

IAZ047>049-059>061-072>074-084-110100-
   CENTRAL IOWA

CITY           SKY/WX    TMP DP  RH WIND       PRES   REMARKS
AMES           CLOUDY    15   9  76 E8        30.10R WCI   4
6HR MIN TEMP:  14; 6HR MAX TEMP:  16; 6HR PCP: TRACE;

ANKENY *       CLOUDY    18  12  79 E7        30.10R WCI   8
BOONE *        CLOUDY    14   9  79 E13       30.08R WCI   0
CHARITON *     CLOUDY    19  16  86 E10       30.06R WCI   8
DES MOINES     CLOUDY    19  11  70 E9        30.09R WCI   8
6HR MIN TEMP:  17; 6HR MAX TEMP:  20; 6HR PCP:  0.01;

GRINNELL*      CLOUDY    16  12  86 E7        30.10R WCI   6
KNOXVILLE *    CLOUDY    19  12  73 E7        30.07R WCI  10
MARSHALLTOWN   CLOUDY    13   7  77 NE8       30.11R WCI   2
6HR MIN TEMP:  11; 6HR MAX TEMP:  14; 6HR PCP: TRACE;

NEWTON *       CLOUDY    16  12  86 E8        30.09R WCI   5
PELLA *        CLOUDY    19  14  79 E5        30.11R WCI  13
$$

IAZ004>006-015-016-023>025-035-036-110100-
   NORTH CENTRAL IOWA

CITY           SKY/WX    TMP DP  RH WIND       PRES   REMARKS
ALGONA *       CLOUDY    12   9  85 E7        30.11R WCI   2
CLARION *      CLOUDY    12   3  67 E10       30.11R WCI  -1
ESTHERVILLE    CLOUDY    11   7  84 NE9       30.10R WCI  -2
6HR MIN TEMP:  10; 6HR MAX TEMP:  11; 6HR PCP: TRACE;

FORT DODGE *   CLOUDY    12   5  73 E9        30.12R WCI   0
MASON CITY     CLEAR      6  -1  73 NE5       30.12R WCI  -3
6HR MIN TEMP:   6; 6HR MAX TEMP:  12; 6HR PCP: TRACE;

FOREST CITY *    N/A     10   1  67 CALM      30.11R
WEBSTER CITY * CLOUDY    14   9  79 NE10      30.09R WCI   1
IOWA FALLS *   CLOUDY    13   6  72 NE6       30.11S WCI   4
$$

IAZ007>011-017>019-026>030-037>042-050>054-066-110100-
   NORTHEAST IOWA

CITY           SKY/WX    TMP DP  RH WIND       PRES   REMARKS
CEDAR RAPIDS   CLOUDY    15   4  61 NW6       30.11R WCI   6
6HR MIN TEMP:  12; 6HR MAX TEMP:  16;

CHARLES CITY * CLOUDY     9  -2  61 N3        30.12R
CLINTON *      CLEAR     14   4  64 N7        30.12R WCI   4
DECORAH *      CLOUDY     9  -4  56 NW6       30.09R WCI  -1
DUBUQUE        CLEAR     11   0  61 NW6       30.09R WCI   1
6HR MIN TEMP:  11; 6HR MAX TEMP:  14;

MONTICELLO *   CLOUDY    14   1  57 NW8       30.11R WCI   3
OELWEIN *      PTCLDY    10   0  61 N9        30.11R WCI  -2
WATERLOO       CLEAR     10  -2  58 N7        30.13R WCI  -1
6HR MIN TEMP:  10; 6HR MAX TEMP:  15;

$$

IAZ064-065-067-068-078-110100-
   EAST CENTRAL IOWA

CITY           SKY/WX    TMP DP  RH WIND       PRES   REMARKS
DAVENPORT      CLOUDY    16   2  54 NW7       30.12R WCI   6
6HR MIN TEMP:  15; 6HR MAX TEMP:  18;

IOWA CITY      CLOUDY    18   3  52 W5        30.14R WCI  11
6HR MIN TEMP:  15; 6HR MAX TEMP:  19;

MT. PLEASANT * FLURRIES  21  15  78 CALM      30.13R
MUSCATINE *    CLOUDY    19   3  49 W5        30.14R WCI  13
QUAD CITIES    MOCLDY    18   2  49 NW9       30.12R WCI   7
6HR MIN TEMP:  16; 6HR MAX TEMP:  19;

$$

IAZ062-063-075>077-085>089-095>099-110100-
   SOUTHEAST IOWA

CITY           SKY/WX    TMP DP  RH WIND       PRES   REMARKS
BURLINGTON     CLOUDY    18  14  84 CALM      30.12R
6HR MIN TEMP:  16; 6HR MAX TEMP:  19; 6HR PCP: TRACE;

FAIRFIELD *    FLURRIES  19  12  73 E6        30.11R WCI  11
FORT MADISON * CLOUDY    18  14  86 CALM      30.13R
KEOKUK *       CLOUDY    19  14  79 CALM      30.11S
OSKALOOSA *    FLURRIES  18  14  86 E6        30.11R WCI   9
OTTUMWA        CLOUDY    18  14  84 E8        30.11R WCI   8
6HR MIN TEMP:  16; 6HR MAX TEMP:  19; 6HR PCP: TRACE;

WASHINGTON *   CLOUDY    18  10  73 CALM      30.13R
$$

ABBREVIATIONS USED IN REMARKS
   TC - TEMPERATURES IN CELSIUS
  WCI - WIND CHILL INDEX
   HX - HEAT INDEX
  VSB - VISIBILITY
$$





USA.gov is the U.S. government's official web portal to all federal, state and local government web resources and services.